Location: Ch�risy
(50.2331°N, 2.9131°E)
Time: 01:52:57
(UTC+00:00)

NOSS 3-4 (A) - Pass Details

Date: 17 January 2021
Orbit: 877 x 1335 km, 63.4° (Epoch: 16 February)

Event Time Altitude Azimuth Distance (km) Brightness Sun altitude
Rises 18:16:39 0° 252° (WSW) 3,497 8.0 -18.5°
Reaches altitude 10° 18:19:13 10° 259° (W) 2,588 7.0 -18.9°
Maximum altitude 18:24:54 42° 330° (NNW) 1,335 4.3 -19.8°
Enters shadow 18:29:06 19° 32° (NNE) 2,172 5.0 -20.5°
